Rochelle, IL

12:11 AM CDT on October 23, 2017 (GMT -0500)
Rochelle

Weather History for KRPJ - January, 2014

Change the Weather History Date:

Sunday, January 19, 2014

  Actual Average (KRFD) Record (KRFD)
Temperature  
Mean Temperature 20 °F -  
Max Temperature 35 °F 27 °F 53 °F (2006)
Min Temperature 4 °F 10 °F -24 °F (1985)
Degree Days  
Heating Degree Days 46    
Moisture  
Dew Point 18 °F    
Average Humidity 82    
Maximum Humidity 91    
Minimum Humidity 75    
Precipitation  
Precipitation 0.00 in - - ()
Sea Level Pressure  
Sea Level Pressure 29.69 in    
Wind  
Wind Speed 12 mph (WSW)    
Max Wind Speed 22 mph    
Max Gust Speed 28 mph    
Visibility 9 miles    
Events Snow    
Averages and records for this station are not official NWS values.
T = Trace of Precipitation, MM = Missing Value Source: NWS Daily Summary

Daily Weather History Graph

Daily Weather History Graph

Search for Another Location

Airport or City:

Trip Planner

Search our weather history database for the weather conditions in past years. The results will help you decide how hot, cold, wet, or windy it might be!

Date:

Astronomy

Jan. 19, 2014 Rise Set
Actual Time 7:19 AM CST 4:55 PM CST
Civil Twilight 6:48 AM CST 5:25 PM CST
Nautical Twilight 6:14 AM CST 5:59 PM CST
Astronomical Twilight 5:41 AM CST 6:33 PM CST
Moon 8:37 PM CST (1/19) 8:45 AM CST (1/19)
Length of Visible Light 10h 36m
Length of Day
9h 35m
Waning Gibbous, 89% of the Moon is Illuminated
Jan 19
Waning Gibbous
Jan 23
Last Quarter
Jan 30
New
Feb 6
First Quarter
Feb 14
Full

Hourly Weather History & Observations

Time (CST) Temp. Windchill Dew Point Humidity Pressure Visibility Wind Dir Wind Speed Gust Speed Precip Events Conditions
12:15 AM 6.1 °F -5.6 °F 3.4 °F 89% 29.86 in 10.0 mi West 6.9 mph - N/A   Clear
12:35 AM 5.9 °F -3.0 °F 3.0 °F 88% 29.87 in 10.0 mi WSW 4.6 mph - N/A   Clear
12:55 AM 5.7 °F -8.2 °F 3.2 °F 89% 29.87 in 10.0 mi West 9.2 mph - N/A   Clear
1:15 AM 6.8 °F -4.8 °F 4.1 °F 89% 29.86 in 10.0 mi West 6.9 mph - N/A   Clear
1:35 AM 5.9 °F -1.1 °F 3.0 °F 88% 29.86 in 5.0 mi WSW 3.5 mph - N/A Snow Light Snow
1:55 AM 4.1 °F -8.0 °F 0.9 °F 86% 29.86 in 10.0 mi SW 6.9 mph - N/A   Scattered Clouds
2:15 AM 5.0 °F -6.9 °F 2.3 °F 89% 29.86 in 10.0 mi SW 6.9 mph - N/A   Clear
2:35 AM 5.4 °F -7.6 °F 2.5 °F 88% 29.86 in 10.0 mi WSW 8.1 mph - N/A   Clear
2:55 AM 5.9 °F -7.0 °F 3.6 °F 90% 29.87 in 10.0 mi WSW 8.1 mph - N/A   Clear
3:15 AM 5.9 °F -5.8 °F 3.2 °F 89% 29.87 in 5.0 mi WSW 6.9 mph - N/A Snow Light Snow
3:35 AM 6.3 °F -5.4 °F 3.2 °F 87% 29.86 in 4.0 mi SW 6.9 mph - N/A Snow Light Snow
3:55 AM 6.3 °F -5.4 °F 3.2 °F 87% 29.85 in 5.0 mi SW 6.9 mph - N/A Snow Light Snow
4:15 AM 7.0 °F -4.5 °F 4.3 °F 89% 29.83 in 4.0 mi SW 6.9 mph - N/A Snow Light Snow
4:35 AM 8.8 °F -3.5 °F 6.6 °F 91% 29.82 in 7.0 mi SW 8.1 mph - N/A   Mostly Cloudy
4:55 AM 10.2 °F -4.3 °F 7.9 °F 90% 29.82 in 7.0 mi WSW 11.5 mph - N/A   Overcast
5:15 AM 11.1 °F -3.9 °F 8.6 °F 90% 29.81 in 7.0 mi SW 12.7 mph - N/A   Overcast
5:35 AM 11.8 °F -3.6 °F 9.3 °F 90% 29.80 in 10.0 mi SW 13.8 mph - N/A   Scattered Clouds
5:55 AM 12.7 °F -2.5 °F 10.4 °F 90% 29.79 in 10.0 mi SW 13.8 mph - N/A   Scattered Clouds
6:15 AM 13.6 °F -2.4 °F 11.1 °F 90% 29.78 in 10.0 mi WSW 16.1 mph - N/A   Scattered Clouds
6:35 AM 13.6 °F -0.7 °F 10.6 °F 88% 29.78 in 10.0 mi WSW 12.7 mph - N/A   Clear
6:55 AM 13.1 °F -1.4 °F 10.2 °F 88% 29.78 in 10.0 mi SW 12.7 mph - N/A   Clear
7:15 AM 13.5 °F -0.9 °F 10.8 °F 89% 29.77 in 10.0 mi SW 12.7 mph - N/A   Scattered Clouds
7:35 AM 14.0 °F -2.5 °F 11.3 °F 89% 29.76 in 10.0 mi SW 17.3 mph 23.0 mph N/A   Scattered Clouds
7:55 AM 14.9 °F -1.8 °F 12.0 °F 88% 29.75 in 10.0 mi SW 18.4 mph - N/A   Clear
8:15 AM 15.8 °F -0.2 °F 12.7 °F 88% 29.75 in 10.0 mi SW 17.3 mph 23.0 mph N/A   Clear
8:35 AM 17.2 °F 3.9 °F 13.6 °F 86% 29.74 in 10.0 mi SW 12.7 mph 18.4 mph N/A   Clear
8:55 AM 18.5 °F 3.3 °F 14.7 °F 85% 29.74 in 10.0 mi SW 17.3 mph - N/A   Clear
9:15 AM 19.9 °F 4.8 °F 15.8 °F 84% 29.75 in 7.0 mi SW 18.4 mph 24.2 mph N/A   Clear
9:35 AM 21.2 °F 6.4 °F 16.7 °F 83% 29.74 in 7.0 mi SW 18.4 mph 23.0 mph N/A   Clear
9:55 AM 22.1 °F 7.2 °F 18.0 °F 84% 29.73 in 5.0 mi WSW 19.6 mph 24.2 mph N/A   Clear
10:15 AM 23.4 °F 8.4 °F 18.9 °F 83% 29.72 in 4.0 mi WSW 20.7 mph 27.6 mph N/A   Clear
10:35 AM 24.6 °F 9.7 °F 19.4 °F 81% 29.72 in 7.0 mi WSW 21.9 mph - N/A   Clear
10:55 AM 25.7 °F 12.7 °F 20.3 °F 80% 29.71 in 7.0 mi WSW 17.3 mph - N/A   Clear
11:15 AM 26.6 °F 13.1 °F 21.0 °F 79% 29.69 in 7.0 mi SW 19.6 mph 25.3 mph N/A   Clear
11:35 AM 27.5 °F 14.6 °F 21.6 °F 78% 29.67 in 10.0 mi SW 18.4 mph 25.3 mph N/A   Clear
11:55 AM 28.9 °F 16.5 °F 22.1 °F 76% 29.66 in 10.0 mi WSW 18.4 mph 24.2 mph N/A   Clear
12:15 PM 30.2 °F 18.5 °F 23.0 °F 75% 29.66 in 10.0 mi WSW 17.3 mph 23.0 mph N/A   Clear
12:35 PM 30.6 °F 17.9 °F 23.4 °F 75% 29.65 in 10.0 mi WSW 20.7 mph - N/A   Clear
12:55 PM 30.7 °F 18.1 °F 23.7 °F 75% 29.65 in 10.0 mi WSW 20.7 mph 27.6 mph N/A   Clear
1:15 PM 30.4 °F 17.7 °F 23.9 °F 77% 29.64 in 10.0 mi WSW 20.7 mph 24.2 mph N/A   Scattered Clouds
1:35 PM 30.7 °F 18.8 °F 24.3 °F 77% 29.63 in 10.0 mi WSW 18.4 mph 24.2 mph N/A   Clear
1:55 PM 31.1 °F 18.9 °F 24.8 °F 77% 29.62 in 10.0 mi SW 19.6 mph 26.5 mph N/A   Clear
2:15 PM 31.8 °F 20.2 °F 25.3 °F 77% 29.61 in 10.0 mi SW 18.4 mph - N/A   Clear
2:35 PM 32.0 °F 22.1 °F 25.5 °F 77% 29.60 in 10.0 mi SW 13.8 mph - N/A   Clear
2:55 PM 32.0 °F 21.6 °F 25.9 °F 78% 29.58 in 10.0 mi SW 15.0 mph 21.9 mph N/A   Clear
3:15 PM 32.7 °F 21.8 °F 26.2 °F 77% 29.57 in 10.0 mi SW 17.3 mph - N/A   Clear
3:35 PM 33.6 °F 23.3 °F 27.0 °F 77% 29.56 in 10.0 mi SW 16.1 mph - N/A   Clear
3:55 PM 34.3 °F 24.2 °F 27.1 °F 75% 29.57 in 10.0 mi SW 16.1 mph - N/A   Clear
4:15 PM 34.2 °F 24.4 °F 27.1 °F 75% 29.56 in 10.0 mi SW 15.0 mph - N/A   Clear
4:35 PM 33.1 °F 24.9 °F 26.6 °F 77% 29.56 in 10.0 mi SW 10.4 mph - N/A   Clear
4:55 PM 32.9 °F 22.8 °F 27.1 °F 79% 29.56 in 10.0 mi SW 15.0 mph - N/A   Clear
5:15 PM 32.9 °F 22.8 °F 27.1 °F 79% 29.56 in 10.0 mi SW 15.0 mph - N/A   Clear
5:35 PM 32.5 °F 22.7 °F 27.1 °F 80% 29.56 in 10.0 mi SW 13.8 mph - N/A   Clear
5:55 PM 32.0 °F 25.6 °F 26.4 °F 80% 29.56 in 10.0 mi SW 6.9 mph - N/A   Clear
6:15 PM 30.4 °F 26.9 °F 25.2 °F 81% 29.57 in 10.0 mi WSW 3.5 mph - N/A   Clear
6:55 PM 33.4 °F 23.9 °F 28.4 °F 82% 29.56 in 10.0 mi SW 13.8 mph - N/A   Clear
7:15 PM 34.3 °F 24.2 °F 29.1 °F 81% 29.55 in 10.0 mi SW 16.1 mph - N/A   Clear
7:35 PM 34.7 °F 24.7 °F 28.8 °F 79% 29.54 in 10.0 mi SW 16.1 mph - N/A   Clear
7:55 PM 34.7 °F 24.7 °F 28.6 °F 78% 29.54 in 10.0 mi SW 16.1 mph - N/A   Clear
8:15 PM 34.7 °F 24.3 °F 28.4 °F 78% 29.54 in 10.0 mi SW 17.3 mph - N/A   Clear
8:35 PM 34.7 °F 25.1 °F 28.8 °F 79% 29.54 in 10.0 mi WSW 15.0 mph - N/A   Clear
8:55 PM 35.6 °F 25.5 °F 28.8 °F 76% 29.54 in 10.0 mi WSW 17.3 mph - N/A   Clear
9:15 PM 35.6 °F 25.5 °F 28.9 °F 77% 29.55 in 10.0 mi WSW 17.3 mph - N/A   Clear
9:35 PM 35.6 °F 26.6 °F 28.9 °F 77% 29.56 in 10.0 mi WSW 13.8 mph - N/A   Clear
9:55 PM 34.2 °F 26.2 °F 28.2 °F 79% 29.57 in 10.0 mi West 10.4 mph - N/A   Clear
10:15 PM 33.3 °F 23.7 °F 28.2 °F 82% 29.57 in 10.0 mi West 13.8 mph - N/A   Clear
10:35 PM 33.1 °F 24.9 °F 27.7 °F 81% 29.59 in 10.0 mi WNW 10.4 mph - N/A   Clear
10:55 PM 33.3 °F 24.6 °F 28.4 °F 82% 29.59 in 10.0 mi WNW 11.5 mph - N/A   Clear
11:15 PM 34.9 °F 25.7 °F 28.8 °F 78% 29.61 in 10.0 mi WNW 13.8 mph 24.2 mph N/A   Clear
11:35 PM 35.6 °F 27.1 °F 28.2 °F 75% 29.61 in 10.0 mi WNW 12.7 mph 24.2 mph N/A   Clear
11:55 PM 34.7 °F 25.9 °F 27.9 °F 76% 29.62 in 10.0 mi WNW 12.7 mph 20.7 mph N/A   Clear